Weather History for KTIP - March, 2014

Change the Weather History Date:

Sunday, March 9, 2014

  Actual Average (KCMI) Record (KCMI)
Temperature  
Mean Temperature 36 °F 38 °F  
Max Temperature 45 °F 47 °F 61 °F (2002)
Min Temperature 28 °F 29 °F 14 °F (2003)
Degree Days  
Heating Degree Days 28 27  
Month to date heating degree days 258  
Since 1 July heating degree days 4760  
Cooling Degree Days 0 0  
Month to date cooling degree days 0  
Year to date cooling degree days 0  
Moisture  
Dew Point 30 °F    
Average Humidity 77    
Maximum Humidity 91    
Minimum Humidity 64    
Precipitation  
Precipitation 0.00 in 0.06 in 1.25 in (2006)
Month to date precipitation 0.57  
Year to date precipitation 4.64  
Sea Level Pressure  
Sea Level Pressure 30.14 in    
Wind  
Wind Speed 4 mph (SW)    
Max Wind Speed 17 mph    
Max Gust Speed 21 mph    
Visibility 7 miles    
Events      
T = Trace of Precipitation, MM = Missing Value Source: NWS Daily Summary

Daily Weather History Graph

Daily Weather History Graph

Search for Another Location

Airport or City:

Trip Planner

Search our weather history database for the weather conditions in past years. The results will help you decide how hot, cold, wet, or windy it might be!

Date:

Astronomy

Mar. 09, 2014 Rise Set
Actual Time 7:13 AM CDT 6:53 PM CDT
Civil Twilight 6:46 AM CDT 7:20 PM CDT
Nautical Twilight 6:15 AM CDT 7:51 PM CDT
Astronomical Twilight 5:43 AM CDT 8:23 PM CDT
Moon 12:45 PM CDT (3/9) 3:39 AM CDT (3/9)
Length of Visible Light 12h 33m
Length of Day
11h 39m
First Quarter, 61% of the Moon is Illuminated
Mar 9
First Quarter
Mar 16
Full
Mar 23
Last Quarter
Mar 30
New
Apr 7
First Quarter

Hourly Weather History & Observations

Time (CDT) Temp. Windchill Dew Point Humidity Pressure Visibility Wind Dir Wind Speed Gust Speed Precip Events Conditions
12:15 AM 31.8 °F - 25.5 °F 78% 30.27 in 10.0 mi Calm Calm - N/A   Unknown
12:35 AM 31.5 °F - 25.7 °F 79% 30.27 in 10.0 mi Calm Calm - N/A   Unknown
12:55 AM 31.1 °F - 25.5 °F 80% 30.27 in 10.0 mi Calm Calm - N/A   Unknown
1:15 AM 30.9 °F - 25.0 °F 79% 30.27 in 10.0 mi Calm Calm - N/A   Unknown
1:35 AM 30.4 °F - 25.9 °F 83% 30.28 in 7.0 mi Calm Calm - N/A   Unknown
1:55 AM 29.8 °F - 26.4 °F 87% 30.27 in 7.0 mi Calm Calm - N/A   Unknown
3:15 AM 28.8 °F - 25.3 °F 87% 30.27 in 5.0 mi Calm Calm - N/A   Mist
3:35 AM 29.8 °F - 27.0 °F 89% 30.27 in 5.0 mi Calm Calm - N/A   Mist
3:55 AM 29.5 °F - 26.2 °F 88% 30.27 in 5.0 mi Calm Calm - N/A   Mist
4:15 AM 29.3 °F - 26.1 °F 88% 30.27 in 7.0 mi Calm Calm - N/A   Unknown
4:35 AM 29.5 °F - 25.9 °F 86% 30.26 in 7.0 mi Calm Calm - N/A   Unknown
4:50 AM 29.8 °F - 25.9 °F 85% 30.26 in 10.0 mi Calm Calm - N/A   Unknown
5:15 AM 29.8 °F - 26.1 °F 86% 30.26 in 7.0 mi Calm Calm - N/A   Unknown
5:35 AM 29.8 °F - 26.4 °F 87% 30.26 in 7.0 mi Calm Calm - N/A   Unknown
5:55 AM 29.8 °F - 26.6 °F 88% 30.27 in 5.0 mi Calm Calm - N/A   Mist
6:15 AM 30.0 °F - 27.0 °F 88% 30.28 in 5.0 mi Calm Calm - N/A   Mist
6:35 AM 30.0 °F - 27.1 °F 89% 30.28 in 4.0 mi Calm Calm - N/A   Mist
6:55 AM 29.8 °F - 27.1 °F 90% 30.28 in 4.0 mi Calm Calm - N/A   Mist
7:15 AM 29.8 °F - 27.3 °F 90% 30.27 in 2.5 mi Calm Calm - N/A   Mist
7:35 AM 30.0 °F - 27.5 °F 90% 30.28 in 2.5 mi Calm Calm - N/A   Mist
7:55 AM 30.0 °F - 27.7 °F 91% 30.28 in 2.0 mi Calm Calm - N/A   Mist
8:15 AM 30.9 °F - 28.4 °F 90% 30.28 in 2.5 mi Calm Calm - N/A   Mist
8:35 AM 31.8 °F - 29.1 °F 90% 30.28 in 2.0 mi Calm Calm - N/A   Mist
8:55 AM 32.0 °F - 28.4 °F 87% 30.28 in 4.0 mi Calm Calm - N/A   Mist
9:15 AM 32.2 °F - 27.5 °F 83% 30.28 in 5.0 mi Calm Calm - N/A   Haze
9:35 AM 32.9 °F - 26.8 °F 78% 30.27 in 7.0 mi Calm Calm - N/A   Unknown
9:55 AM 33.6 °F - 28.4 °F 81% 30.26 in 5.0 mi Calm Calm - N/A   Haze
10:15 AM 34.0 °F - 28.8 °F 81% 30.26 in 5.0 mi Calm Calm - N/A   Haze
10:35 AM 34.9 °F - 28.8 °F 78% 30.26 in 5.0 mi Calm Calm - N/A   Haze
10:55 AM 35.6 °F 27.5 °F 28.6 °F 76% 30.25 in 7.0 mi SW 11.5 mph - N/A   Unknown
11:15 AM 36.3 °F 28.0 °F 28.8 °F 74% 30.24 in 10.0 mi SW 12.7 mph - N/A   Unknown
11:35 AM 37.0 °F 28.9 °F 29.7 °F 75% 30.24 in 10.0 mi SW 12.7 mph - N/A   Unknown
11:55 AM 37.8 °F 29.4 °F 30.2 °F 74% 30.23 in 10.0 mi SW 13.8 mph 17.3 mph N/A   Unknown
12:15 PM 38.3 °F 30.5 °F 30.4 °F 73% 30.22 in 10.0 mi SW 12.7 mph 16.1 mph N/A   Unknown
12:35 PM 38.5 °F 31.1 °F 30.2 °F 72% 30.21 in 10.0 mi SW 11.5 mph 17.3 mph N/A   Unknown
12:55 PM 39.4 °F 31.4 °F 31.3 °F 73% 30.20 in 7.0 mi SW 13.8 mph - N/A   Unknown
1:15 PM 40.1 °F 32.4 °F 31.8 °F 72% 30.20 in 7.0 mi SW 13.8 mph - N/A   Unknown
1:30 PM 40.1 °F 32.7 °F 31.5 °F 71% 30.19 in 7.0 mi SSW 12.7 mph 19.6 mph N/A   Unknown
1:55 PM 41.0 °F 33.1 °F 32.0 °F 70% 30.16 in 7.0 mi SW 15.0 mph - N/A   Unknown
2:15 PM 42.1 °F 34.9 °F 33.1 °F 70% 30.13 in 7.0 mi SW 13.8 mph 17.3 mph N/A   Unknown
2:30 PM 42.6 °F 35.9 °F 32.9 °F 68% 30.13 in 7.0 mi SSW 12.7 mph - N/A   Unknown
2:55 PM 43.5 °F 35.8 °F 33.6 °F 68% 30.11 in 10.0 mi SW 17.3 mph 20.7 mph N/A   Unknown
3:15 PM 44.1 °F 37.1 °F 33.8 °F 67% 30.11 in 10.0 mi SW 15.0 mph 18.4 mph N/A   Unknown
3:35 PM 44.2 °F 37.6 °F 32.7 °F 64% 30.09 in 10.0 mi SSW 13.8 mph 19.6 mph N/A   Unknown
3:55 PM 45.0 °F 37.6 °F 33.8 °F 65% 30.08 in 10.0 mi SW 17.3 mph 20.7 mph N/A   Unknown
4:15 PM 45.5 °F 38.9 °F 34.3 °F 65% 30.08 in 10.0 mi SW 15.0 mph 20.7 mph N/A   Unknown
4:35 PM 45.9 °F 39.1 °F 34.7 °F 65% 30.08 in 10.0 mi SW 16.1 mph - N/A   Unknown
4:55 PM 45.7 °F 38.6 °F 34.5 °F 65% 30.06 in 10.0 mi SW 17.3 mph - N/A   Unknown
5:15 PM 45.7 °F 39.8 °F 34.9 °F 66% 30.04 in 10.0 mi SW 12.7 mph - N/A   Unknown
5:35 PM 45.5 °F 38.9 °F 34.7 °F 66% 30.04 in 10.0 mi SW 15.0 mph 19.6 mph N/A   Unknown
5:55 PM 44.4 °F 37.9 °F 34.7 °F 69% 30.02 in 7.0 mi SW 13.8 mph - N/A   Unknown
6:10 PM 44.2 °F 37.6 °F 34.2 °F 68% 30.02 in 7.0 mi SW 13.8 mph 19.6 mph N/A   Unknown
6:35 PM 43.7 °F 42.1 °F 33.8 °F 68% 30.01 in 7.0 mi SW 3.5 mph - N/A   Unknown
6:55 PM 42.6 °F - 33.1 °F 69% 30.02 in 7.0 mi Calm Calm - N/A   Unknown
7:15 PM 41.7 °F - 32.9 °F 71% 30.01 in 7.0 mi Calm Calm - N/A   Unknown
7:35 PM 40.3 °F - 32.4 °F 73% 30.00 in 7.0 mi Calm Calm - N/A   Unknown
7:55 PM 39.4 °F - 32.0 °F 75% 30.00 in 7.0 mi Calm Calm - N/A   Unknown
8:10 PM 39.2 °F - 32.0 °F 75% 29.99 in 7.0 mi Calm Calm - N/A   Unknown
8:35 PM 38.8 °F 32.6 °F 32.0 °F 76% 29.98 in 7.0 mi SSW 9.2 mph - N/A   Unknown
8:55 PM 38.3 °F - 32.0 °F 78% 29.97 in 7.0 mi Calm Calm - N/A   Unknown
9:10 PM 38.7 °F - 32.0 °F 77% 29.97 in 7.0 mi Calm Calm - N/A   Unknown
9:35 PM 38.7 °F - 32.0 °F 77% 29.96 in 5.0 mi Calm Calm - N/A   Haze
9:55 PM 39.0 °F - 32.0 °F 76% 29.97 in 5.0 mi Calm Calm - N/A   Haze
10:15 PM 40.3 °F 34.9 °F 32.0 °F 72% 29.96 in 5.0 mi SSW 8.1 mph - N/A   Haze
10:35 PM 40.3 °F 33.4 °F 32.0 °F 72% 29.96 in 7.0 mi SSW 11.5 mph 18.4 mph N/A   Unknown
10:50 PM 40.1 °F 32.7 °F 32.0 °F 73% 29.96 in 7.0 mi SSW 12.7 mph 18.4 mph N/A   Unknown
11:10 PM 40.3 °F 33.0 °F 32.0 °F 72% 29.95 in 7.0 mi SSW 12.7 mph 19.6 mph N/A   Unknown
11:35 PM 40.1 °F 32.4 °F 32.0 °F 73% 29.94 in 7.0 mi SSW 13.8 mph 19.6 mph N/A   Unknown
11:55 PM 39.7 °F 33.7 °F 32.0 °F 74% 29.93 in 7.0 mi SW 9.2 mph 18.4 mph N/A   Unknown
12:10 AM 39.0 °F 31.8 °F 32.0 °F 76% 29.93 in 7.0 mi SW 11.5 mph - N/A   Unknown
12:35 AM 38.3 °F 30.1 °F 32.0 °F 78% 29.92 in 7.0 mi SW 13.8 mph - N/A   Unknown
12:55 AM 38.3 °F 30.1 °F 32.0 °F 78% 29.92 in 7.0 mi SW 13.8 mph - N/A   Unknown